Hallock, MN

4:28 PM CDT on April 30, 2017 (GMT -0500)
Hallock Municipal

Weather History for KHCO - March, 2014

Change the Weather History Date:

Monday, March 31, 2014

  Actual Average Record
Temperature  
Mean Temperature 18 °F -  
Max Temperature 21 °F 42 °F 71 °F (1967)
Min Temperature 15 °F 21 °F -12 °F (1975)
Degree Days  
Heating Degree Days 47    
Moisture  
Dew Point 14 °F    
Average Humidity 84    
Maximum Humidity 93    
Minimum Humidity 68    
Precipitation  
Precipitation 0.00 in - - ()
Sea Level Pressure  
Sea Level Pressure 29.97 in    
Wind  
Wind Speed 22 mph (North)    
Max Wind Speed 28 mph    
Max Gust Speed 36 mph    
Visibility 3 miles    
Events Snow , Thunderstorm    
Averages and records for this station are not official NWS values.
T = Trace of Precipitation, MM = Missing Value Source: NWS Daily Summary

Daily Weather History Graph

Daily Weather History Graph

Search for Another Location

Airport or City:

Trip Planner

Search our weather history database for the weather conditions in past years. The results will help you decide how hot, cold, wet, or windy it might be!

Date:

Astronomy

Mar. 31, 2014 Rise Set
Actual Time 7:07 AM CDT 7:57 PM CDT
Civil Twilight 6:35 AM CDT 8:29 PM CDT
Nautical Twilight 5:57 AM CDT 9:07 PM CDT
Astronomical Twilight 5:17 AM CDT 9:47 PM CDT
Moon 7:26 AM CDT (3/31) 9:25 PM CDT (3/31)
Length of Visible Light 13h 53m
Length of Day
12h 49m
New Moon, 1% of the Moon is Illuminated
Mar 31
New Moon
Apr 7
First Quarter
Apr 15
Full
Apr 22
Last Quarter
Apr 29
New

Hourly Weather History & Observations

Time (CDT) Temp. Windchill Dew Point Humidity Pressure Visibility Wind Dir Wind Speed Gust Speed Precip Events Conditions
12:13 AM 19.4 °F 2.8 °F 10.4 °F 68% 30.04 in 10.0 mi North 21.9 mph - N/A   Overcast
12:33 AM 19.4 °F 3.2 °F 10.4 °F 68% 30.03 in 10.0 mi North 20.7 mph 27.6 mph N/A   Overcast
12:53 AM 17.6 °F -0.3 °F 10.4 °F 73% 30.02 in 10.0 mi North 24.2 mph 27.6 mph N/A   Overcast
1:13 AM 17.6 °F -0.6 °F 10.4 °F 73% 30.02 in 10.0 mi North 25.3 mph - N/A   Overcast
1:33 AM 17.6 °F 0.1 °F 10.4 °F 73% 30.03 in 10.0 mi North 23.0 mph 27.6 mph N/A   Scattered Clouds
1:53 AM 17.6 °F 0.9 °F 8.6 °F 68% 30.05 in 10.0 mi North 20.7 mph - N/A   Mostly Cloudy
2:13 AM 17.6 °F 1.7 °F 10.4 °F 73% 30.05 in 10.0 mi North 18.4 mph 25.3 mph N/A   Overcast
2:33 AM - - - N/A% 30.05 in 5.0 mi North 19.6 mph 25.3 mph N/A   Unknown
2:53 AM 15.8 °F -0.6 °F 10.4 °F 79% 30.05 in 3.0 mi North 18.4 mph 25.3 mph N/A   Overcast
3:12 AM 15.8 °F -1.1 °F 10.4 °F 79% 30.04 in 2.5 mi North 19.6 mph 26.5 mph N/A Snow Light Snow
3:33 AM 15.8 °F -0.6 °F 10.4 °F 79% 30.04 in 2.5 mi North 18.4 mph - N/A Snow Light Snow
3:53 AM 15.8 °F -0.6 °F 10.4 °F 79% 30.03 in 3.0 mi North 18.4 mph 24.2 mph N/A Snow Light Snow
4:13 AM 15.8 °F -1.5 °F 10.4 °F 79% 30.02 in 4.0 mi North 20.7 mph 25.3 mph N/A Snow Light Snow
4:33 AM 17.6 °F 1.3 °F 10.4 °F 73% 30.01 in 4.0 mi North 19.6 mph 26.5 mph N/A Snow Light Snow
4:53 AM 17.6 °F 0.1 °F 10.4 °F 73% 30.01 in 7.0 mi North 23.0 mph 28.8 mph N/A Snow Light Snow
5:13 AM 17.6 °F 0.5 °F 10.4 °F 73% 30.00 in 10.0 mi North 21.9 mph - N/A   Mostly Cloudy
5:33 AM 17.6 °F 0.5 °F 12.2 °F 79% 30.00 in 5.0 mi North 21.9 mph 27.6 mph N/A Snow Light Snow
5:53 AM 17.6 °F 0.5 °F 12.2 °F 79% 29.99 in 2.0 mi North 21.9 mph 27.6 mph N/A Snow Light Snow
6:13 AM 19.4 °F 2.5 °F 14.0 °F 80% 29.99 in 1.5 mi North 23.0 mph 28.8 mph N/A Snow Light Snow
6:33 AM 17.6 °F 1.3 °F 15.8 °F 93% 29.97 in 1.2 mi North 19.6 mph 26.5 mph N/A Snow Light Snow
6:53 AM 19.4 °F 2.8 °F 15.8 °F 86% 29.98 in 0.8 mi North 21.9 mph 26.5 mph N/A Snow Snow
7:13 AM 19.4 °F 2.1 °F 17.6 °F 93% 29.97 in 0.8 mi North 24.2 mph 29.9 mph N/A Snow Snow
7:33 AM 21.2 °F 6.0 °F 17.6 °F 86% 29.98 in 0.2 mi North 19.6 mph 25.3 mph N/A Snow Snow
7:54 AM 21.2 °F 4.9 °F 17.6 °F 86% 29.98 in 0.2 mi NNE 23.0 mph 27.6 mph N/A Snow Snow
8:13 AM 21.2 °F 4.9 °F 17.6 °F 86% 29.99 in 0.2 mi NNE 23.0 mph 31.1 mph N/A Snow Snow
8:33 AM 21.2 °F 4.9 °F 17.6 °F 86% 30.00 in 0.2 mi NNE 23.0 mph 29.9 mph N/A Snow Snow
8:53 AM 21.2 °F 3.9 °F 17.6 °F 86% 29.99 in 0.2 mi North 26.5 mph - N/A Snow Snow
9:13 AM 19.4 °F 2.1 °F 17.6 °F 93% 29.97 in 0.5 mi North 24.2 mph 31.1 mph N/A Snow Snow
9:33 AM 19.4 °F 2.1 °F 17.6 °F 93% 29.96 in 0.2 mi North 24.2 mph 32.2 mph N/A Snow Snow
9:53 AM 19.4 °F 1.1 °F 17.6 °F 93% 29.96 in 0.5 mi North 27.6 mph 33.4 mph N/A Snow Snow
10:13 AM 19.4 °F 2.8 °F 15.8 °F 86% 29.95 in 0.8 mi North 21.9 mph 28.8 mph N/A Snow Light Snow
10:33 AM 19.4 °F 1.4 °F 15.8 °F 86% 29.95 in 0.5 mi North 26.5 mph 32.2 mph N/A Snow Light Snow
10:53 AM 19.4 °F 3.2 °F 15.8 °F 86% 29.97 in 0.5 mi North 20.7 mph 29.9 mph N/A Snow Snow
11:14 AM 17.6 °F 0.1 °F 15.8 °F 93% 29.99 in 0.5 mi North 23.0 mph 27.6 mph N/A Snow Snow
11:33 AM 17.6 °F 0.5 °F 15.8 °F 93% 29.98 in 0.2 mi North 21.9 mph 27.6 mph N/A Snow Snow
11:53 AM 17.6 °F -1.0 °F 14.0 °F 86% 29.97 in 0.2 mi North 26.5 mph - N/A Snow Snow
12:14 PM 17.6 °F -0.6 °F 14.0 °F 86% 29.96 in 0.2 mi North 25.3 mph 31.1 mph N/A Snow Heavy Snow
12:33 PM 17.6 °F -0.3 °F 14.0 °F 86% 29.95 in 0.2 mi North 24.2 mph 32.2 mph N/A Snow Snow
12:53 PM 17.6 °F -0.3 °F 14.0 °F 86% 29.94 in 0.2 mi North 24.2 mph 29.9 mph N/A Snow Snow
1:14 PM 17.6 °F 0.5 °F 14.0 °F 86% 29.94 in 0.2 mi North 21.9 mph 27.6 mph N/A Snow Snow
1:33 PM 17.6 °F 0.1 °F 14.0 °F 86% 29.94 in 0.2 mi North 23.0 mph - N/A Snow Snow
1:53 PM 17.6 °F 0.1 °F 14.0 °F 86% 29.93 in 0.2 mi North 23.0 mph 28.8 mph N/A Snow Snow
2:13 PM 17.6 °F 0.5 °F 14.0 °F 86% 29.92 in 0.2 mi North 21.9 mph 27.6 mph N/A Snow Snow
2:33 PM 17.6 °F -0.3 °F 14.0 °F 86% 29.92 in 0.2 mi North 24.2 mph 29.9 mph N/A Snow Snow
2:53 PM 17.6 °F -0.3 °F 14.0 °F 86% 29.91 in 0.2 mi North 24.2 mph 33.4 mph N/A Snow Snow
3:13 PM 17.6 °F -1.3 °F 14.0 °F 86% 29.91 in 0.2 mi North 27.6 mph - N/A Snow Snow
3:33 PM 17.6 °F -0.3 °F 14.0 °F 86% 29.91 in 0.2 mi North 24.2 mph 27.6 mph N/A Snow Snow
3:53 PM 17.6 °F -0.6 °F 14.0 °F 86% 29.90 in 0.2 mi North 25.3 mph 32.2 mph N/A Snow Snow
4:13 PM 17.6 °F -0.3 °F 14.0 °F 86% 29.91 in 0.2 mi North 24.2 mph 29.9 mph N/A Snow Snow
4:33 PM 17.6 °F 0.5 °F 14.0 °F 86% 29.90 in 0.2 mi North 21.9 mph 31.1 mph N/A Snow Snow
4:53 PM 17.6 °F 0.5 °F 14.0 °F 86% 29.90 in 0.2 mi North 21.9 mph 27.6 mph N/A Snow Snow
5:13 PM 17.6 °F -0.6 °F 14.0 °F 86% 29.90 in 0.2 mi North 25.3 mph 33.4 mph N/A Snow , Thunderstorm Heavy Thunderstorms and Snow
5:33 PM 17.6 °F 0.1 °F 14.0 °F 86% 29.90 in - North 23.0 mph 28.8 mph N/A   Overcast
5:53 PM 17.6 °F 0.1 °F 14.0 °F 86% 29.91 in - North 23.0 mph - N/A   Overcast
6:13 PM 17.6 °F 0.9 °F 14.0 °F 86% 29.91 in - North 20.7 mph 35.7 mph N/A   Overcast
6:33 PM 17.6 °F 0.5 °F 14.0 °F 86% 29.92 in - North 21.9 mph 28.8 mph N/A   Overcast
6:53 PM 17.6 °F 0.1 °F 15.8 °F 93% 29.94 in - NNE 23.0 mph 29.9 mph N/A   Overcast
7:13 PM 17.6 °F 1.3 °F 15.8 °F 93% 29.95 in - North 19.6 mph 23.0 mph N/A   Overcast
7:33 PM 17.6 °F 0.5 °F 15.8 °F 93% 29.94 in - North 21.9 mph 27.6 mph N/A   Overcast
7:53 PM 17.6 °F 0.9 °F 15.8 °F 93% 29.95 in - North 20.7 mph 26.5 mph N/A   Overcast
8:13 PM 17.6 °F 1.3 °F 15.8 °F 93% 29.95 in - North 19.6 mph - N/A   Overcast
8:33 PM 17.6 °F 1.7 °F 15.8 °F 93% 29.95 in - North 18.4 mph 25.3 mph N/A   Overcast
8:53 PM 17.6 °F 0.1 °F 15.8 °F 93% 29.94 in - North 23.0 mph - N/A   Overcast
9:13 PM 17.6 °F 0.9 °F 15.8 °F 93% 29.94 in - North 20.7 mph 27.6 mph N/A   Overcast
9:33 PM 17.6 °F -0.6 °F 15.8 °F 93% 29.94 in - North 25.3 mph 29.9 mph N/A   Overcast
9:53 PM 17.6 °F 0.1 °F 15.8 °F 93% 29.94 in - North 23.0 mph 29.9 mph N/A   Overcast
10:13 PM 17.6 °F 0.5 °F 14.0 °F 86% 29.95 in - North 21.9 mph 28.8 mph N/A   Unknown
10:33 PM 17.6 °F 0.5 °F 14.0 °F 86% 29.94 in - North 21.9 mph 26.5 mph N/A   Overcast
10:53 PM 17.6 °F 0.1 °F 12.2 °F 79% 29.94 in - North 23.0 mph 27.6 mph N/A   Overcast
11:13 PM 17.6 °F 1.7 °F 12.2 °F 79% 29.94 in - North 18.4 mph 25.3 mph N/A   Overcast
11:33 PM 17.6 °F 0.9 °F 10.4 °F 73% 29.94 in - North 20.7 mph 26.5 mph N/A   Overcast
11:53 PM 17.6 °F 0.9 °F 10.4 °F 73% 29.94 in 10.0 mi North 20.7 mph - N/A   Overcast